Location: Bothwell
(42.3833°S, 147.0000°E)
Time: 20:25:13
(UTC+11:00)

First-Move - Pass Details

Date: 01 October 2022
Orbit: 570 x 653 km, 97.7° (Epoch: 25 November)

Event Time Altitude Azimuth Distance (km) Brightness Sun altitude
Exits shadow 02:08:41 18° 114° (ESE) 1,602 ? -36.4°
Drops below altitude 10° 02:11:54 10° 159° (SSE) 2,103 ? -36.0°
Enters shadow 03:23:00 -37° 10° (N) 8,542 ? -25.9°
Sets 03:51:08 0° 198° (SSW) 3,020 ? -21.3°
